Starlink 1648

operational
NORAD ID: 46533 Int'l Des: 2020-070 Owner: SPXS Country: US Constellation: starlink
LEOCIRCULARSTARLINK_TYPE

About Starlink 1648

Description loading...

Live Position

Loading 3D Globe...

Upcoming Passes

Altitude History

Altitude vs Time

uPlot chart will show altitude changes over time

Two-Line Element Set

1 46533U 20070B 26036.83335647 .00251763 00000-0 18194-2 0 9995
2 46533 53.0491 285.9890 0012861 121.3657 326.2302 15.72119824 5923
Epoch: Feb 5, 2026 • Age: 5 hours

Current Status

Altitude 347.9 km
Velocity 7.70 km/s
Sub-Earth Point 3.76°N, 48.26°W
Launch Date Oct 6, 2020
Age 5.3 years
Type internet

Technical Details

Classification Payload
Mass 260.00 kg
Dry Mass 248.00 kg
Total Mass 260.00 kg
Length 0.20 m
Diameter 2.80 m
Span 9.00 m
Shape Box + pan
Manufacturer SPXS
Bus Type Starlink
Phase Status In Orbit
Owner/State SPXS/US

Large Constellations

Loading constellations...